Weather observations for the past three days for
Oklahoma City, Will Rogers World Airport
Imperial (Metric)
Date Time (cdt) Wind (mph) Vis. (mi.) Weather Sky Cond. Temperature (ºF) Relative Humidity Wind Chill (°F) Heat Index (°F) Pressure Precipitation (in)
Air Dwpt 6 hour altimeter (in) sea level (mb) 1 hr 3 hr 6 hr
Max. Min.
14 01:52 NE 5 10.00 Overcast OVC250 80.1 59 49% 81 29.97 1013.0
14 00:52 N 12 G 22 10.00 Overcast FEW050 OVC250 82 57.9 89.1 75 44% 82 30.03 1014.9
13 23:52 NW 3 10.00 Mostly Cloudy FEW150 BKN250 79 70 74% 82 30.04 1015.5
13 22:52 S 6 10.00 Mostly Cloudy FEW200 BKN250 75.9 71.1 85% 76 29.97 1013.2
13 21:52 S 6 10.00 Mostly Cloudy FEW200 BKN250 75.9 71.1 85% 76 29.93 1011.8
13 20:52 S 8 10.00 Mostly Cloudy FEW200 BKN250 81 70 69% 84 29.89 1010.5
13 19:52 S 15 G 22 10.00 Partly Cloudy SCT250 86 70 59% 91 29.89 1010.4
13 18:52 S 15 G 23 10.00 A Few Clouds FEW250 89.1 70 93 88 53% 94 29.88 1010.3
13 17:52 S 16 G 25 10.00 A Few Clouds FEW250 91 71.1 52% 98 29.9 1010.8
13 16:52 S 15 G 25 10.00 Fair CLR 91 71.1 52% 98 29.91 1011.2
13 15:52 S 14 G 23 10.00 Fair CLR 91.9 70 49% 98 29.93 1011.9
13 14:52 S 14 G 24 10.00 A Few Clouds FEW045 91 70 50% 97 29.95 1012.5
13 13:52 SW 13 10.00 A Few Clouds FEW055 90 71.1 54% 96 29.96 1012.9
13 12:52 S 15 G 23 10.00 A Few Clouds FEW036 89.1 72 89.1 68 57% 96 29.96 1012.9
13 11:52 S 16 G 25 10.00 Partly Cloudy SCT029 86 71.1 61% 92 29.97 1013.3
13 10:52 S 15 10.00 Partly Cloudy SCT024 84 71.1 65% 89 29.98 1013.7
13 09:52 SW 17 G 22 10.00 A Few Clouds FEW020 81 72 74% 85 29.97 1013.5
13 08:52 S 16 G 23 10.00 A Few Clouds FEW010 78.1 71.1 79% 80 29.96 1013.1
13 07:52 S 10 9.00 Fair CLR 73 70 90% 29.96 1012.8
13 06:52 S 6 9.00 Fair CLR 68 66.9 72 66 96% 29.94 1012.4
13 05:52 S 5 9.00 Fair CLR 66.9 64.9 93% 29.93 1012.1
13 04:52 S 6 10.00 A Few Clouds FEW250 66.9 64.9 93% 29.93 1011.8
13 03:52 S 8 10.00 Fair CLR 69.1 64.9 87% 29.92 1011.6
13 02:52 S 8 10.00 Fair CLR 70 64.9 84% 29.92 1011.5
13 01:52 S 9 10.00 Fair CLR 72 66 82% 29.93 1012.0
13 00:52 S 9 10.00 Fair CLR 72 66.9 86 70 84% 29.94 1012.3
12 23:52 S 7 10.00 Fair CLR 70 66.9 90% 29.95 1012.6
12 22:52 S 8 10.00 Fair CLR 72 66.9 84% 29.95 1012.7
12 21:52 S 8 10.00 Fair CLR 73.9 68 82% 29.93 1012.1
12 20:52 S 8 10.00 Fair CLR 77 66.9 71% 79 29.92 1011.6
12 19:52 S 8 10.00 Fair CLR 82.9 66 57% 85 29.92 1011.6
12 18:52 S 10 10.00 A Few Clouds FEW050 86 66 89.1 84 51% 88 29.91 1011.5
12 17:52 S 13 10.00 A Few Clouds FEW050 88 66 48% 90 29.92 1011.7
12 16:52 S 10 G 22 10.00 A Few Clouds FEW050 88 66 48% 90 29.94 1012.3
12 15:52 S 13 G 22 10.00 A Few Clouds FEW047 88 64.9 46% 90 29.95 1012.8
12 14:52 S 13 10.00 A Few Clouds FEW046 88 66.9 50% 91 29.97 1013.5
12 13:52 S 9 10.00 A Few Clouds FEW046 86 66 51% 88 29.99 1014.1
12 12:52 S 6 G 17 10.00 A Few Clouds FEW046 84 64.9 84.9 63 53% 86 30.01 1014.8
12 11:52 S 9 10.00 Fair CLR 82.9 64 53% 84 30.02 1015.1
12 10:52 S 13 10.00 Fair CLR 81 63 54% 82 30.03 1015.4
12 09:52 S 10 10.00 Fair CLR 78.1 63 60% 80 30.04 1015.7
12 08:52 S 7 10.00 Fair CLR 75 64 69% 77 30.04 1016.0
12 06:52 S 6 10.00 A Few Clouds FEW250 63 61 68 63 93% 30.02 1015.1
12 05:52 SE 3 10.00 A Few Clouds FEW250 64 61 90% 30.02 1015.2
12 04:52 Calm 10.00 A Few Clouds FEW250 66.9 62.1 84% 30 1014.5
12 03:52 Calm 10.00 A Few Clouds FEW250 66 62.1 87% 29.99 1014.1
12 02:52 SE 7 10.00 A Few Clouds FEW250 64 61 90% 29.99 1014.2
12 01:52 S 5 10.00 A Few Clouds FEW250 66 61 84% 30.01 1014.9
12 00:52 SE 3 10.00 A Few Clouds FEW250 68 60.1 80.1 66.9 76% 30.01 1014.9
11 23:52 Calm 10.00 A Few Clouds FEW250 71.1 60.1 68% 30 1014.6
11 22:52 E 5 10.00 A Few Clouds FEW250 71.1 60.1 68% 29.99 1014.2
11 21:52 E 7 10.00 A Few Clouds FEW250 71.1 60.1 68% 29.96 1013.3
11 20:52 E 6 10.00 Mostly Cloudy FEW180 BKN250 73 60.1 64% 29.96 1013.3
11 19:52 E 8 10.00 Mostly Cloudy FEW180 BKN250 78.1 59 52% 79 29.95 1012.9
11 18:52 E 8 10.00 Mostly Cloudy FEW180 BKN250 80.1 60.1 84 79 51% 81 29.94 1012.6
11 17:52 SE 9 10.00 Mostly Cloudy FEW070 FEW180 BKN250 81 61 51% 82 29.94 1012.4
11 16:52 SE 8 10.00 Mostly Cloudy FEW050 FEW150 BKN250 82 61 49% 83 29.95 1012.9
11 15:52 SE 9 10.00 Mostly Cloudy FEW050 FEW150 BKN250 82 62.1 51% 83 29.97 1013.5
11 14:52 Calm 10.00 Mostly Cloudy FEW050 SCT080 BKN250 81 60.1 49% 82 29.99 1014.2
11 13:52 S 7 10.00 Mostly Cloudy FEW047 SCT140 BKN250 82 60.1 47% 82 30 1014.6
11 12:52 E 8 G 21 10.00 Mostly Cloudy FEW047 BKN150 BKN250 81 60.1 82 66.9 49% 82 30 1014.6
11 11:52 SE 9 10.00 Mostly Cloudy BKN150 BKN250 79 57.9 49% 80 30 1014.5
11 10:52 SE 12 10.00 Mostly Cloudy BKN150 BKN250 79 59 50% 80 29.99 1014.2
11 09:52 SE 9 10.00 Mostly Cloudy FEW049 SCT130 BKN250 75.9 59 56% 78 29.99 1014.5
11 08:52 SE 10 10.00 Partly Cloudy FEW049 SCT120 SCT250 73.9 59 60% 29.99 1014.2
11 07:52 E 7 10.00 Partly Cloudy SCT049 SCT120 SCT250 70 60.1 71% 29.98 1014.0
11 06:52 E 9 10.00 Mostly Cloudy FEW045 FEW120 SCT180 BKN250 66.9 60.1 68 64.9 79% 29.97 1013.5
11 05:52 S 3 10.00 Mostly Cloudy FEW110 SCT150 BKN180 BKN250 66.9 60.1 79% 29.97 1013.6
11 04:52 E 5 10.00 Overcast SCT110 BKN170 OVC250 66.9 60.1 79% 29.97 1013.5
11 03:52 Calm 10.00 Mostly Cloudy SCT130 BKN250 66 60.1 81% 29.97 1013.6
11 02:52 Calm 10.00 Mostly Cloudy SCT130 BKN250 66.9 57.9 73% 29.97 1013.5
Date Time (cdt) Wind (mph) Vis. (mi.) Weather Sky Cond. Air Dwpt Max. Min. Relative Humidity Wind Chill (°F) Heat Index (°F) altimeter (in) sea level (mb) 1 hr 3 hr 6 hr
6 hour
Temperature (ºF) Pressure Precipitation (in)